Regional Weather Roundup
Issued by NWS

Home | Current Version | Previous Version | Text Only | Print | Product List | Glossary Off
Versions: 1 2 3 4 5 6 7 8 9 10 11 12 13 14 15 16 17 18 19 20 21 22 23 24 25 26 27

000
ASUS45 KTFX 071210
RWRMT
MONTANA REGIONAL WEATHER ROUNDUP
NATIONAL WEATHER SERVICE GREAT FALLS MT
500 AM MST WED DEC 07 2016

NOTE: "FAIR" INDICATES FEW OR NO CLOUDS BELOW 12000 FEET WITH NO
SIGNIFICANT WEATHER AND/OR OBSTRUCTIONS TO VISIBILITY.

MTZ001>007-043-071300-
WEST OF THE DIVIDE

CITY           SKY/WX    TMP DP  RH WIND       PRES   REMARKS
KALISPELL      CLOUDY     7  -4  60 N13       30.36R WCI  -9
MISSOULA       CLOUDY    12  -1  56 SE15      30.33R WCI  -4
BUTTE          CLOUDY     1  -5  75 NW3       30.13R
MULLAN PASS    CLOUDY     5   2  87 VRB3      30.05R
ANACONDA         N/A      1  -6  71 CALM      30.20R
DEER LODGE       N/A      1  -8  66 NW6       30.24S WCI -10
EUREKA           N/A     -9 -15  77 CALM      30.43R
HAMILTON         N/A     12   3  67 N5        30.26R
LIBBY            N/A     16   1  53 E3        30.37R
PLAINS           N/A     16   1  51 N5        30.34
RONAN            N/A     15   7  71 CALM      30.30R
$$

MTZ008-052>055-071300-
SOUTHWEST MONTANA

CITY           SKY/WX    TMP DP  RH WIND       PRES   REMARKS
BOZEMAN        CLOUDY     4  -1  80 SW7       30.25R WCI  -8
DILLON         CLOUDY     2  -5  72 NE6       30.15R WCI  -9
W YELLOWSTONE  CLOUDY   -27 -33  75 CALM      30.03R
ENNIS          CLOUDY    -8 -11  84 CALM      30.21R
THREE FORKS      N/A      4 -65   3 NE3       30.23R
TWIN BRIDGES     N/A      2  -9  60 N12       30.14  WCI -14
$$

MTZ009-010-012-014-046-048-049-054-071300-
EAST SLOPES AND CENTRAL MONTANA

CITY           SKY/WX    TMP DP  RH WIND       PRES   REMARKS
CUT BANK       CLEAR    -12 -16  82 W6        30.37R WCI -26
GREAT FALLS    CLOUDY    -3  -8  79 W5        30.39R
MALMSTROM AFB  FLURRIES  -2  -7  78 NW9       30.43R WCI -17
HELENA         CLOUDY     1  -8  66 W9        30.35R WCI -14
AUGUSTA        FLURRIES  -5 -10  79 NE8       30.30R WCI -20
BOWMANS CRNR   FLURRIES  -6 -11  81 NW2       30.31R
CHOTEAU          N/A     -4  -9  77 MISG      30.39R
CONRAD           N/A     -6 -13  71 W6        30.35S WCI -19
FAIRFIELD      CLOUDY    -4 -11  72 NW7       30.37R WCI -18
POWER          MOCLDY    -8 -13  80 W6        30.38R WCI -22
RAYNESFORD     FLURRIES  -5 -10  77 W5        30.35R
ULM            CLOUDY    -5  -9  83 W6        30.41R WCI -18
$$

MTZ011-013-016-021-045-047-050-051-071300-
NORTH CENTRAL MONTANA

CITY           SKY/WX    TMP DP  RH WIND       PRES   REMARKS
HAVRE          CLOUDY     0  -6  76 W13       30.48R WCI -18
LEWISTOWN      MOCLDY    -9 -12  87 W8        30.31R WCI -25
N BAR RANCH      N/A     -4 -13  65 NW12G18   30.25R WCI -22
CHINOOK          N/A      1  -6  71 W14       30.47R WCI -17
DENTON           N/A     -7 -12  80 N13G25    30.35R WCI -27
GEYSER           N/A     -5 -11  76 W17G23    30.32R WCI -27
GRASS RANGE    CLOUDY    -4 -10  76 W23G31    30.28R WCI -29
JUDITH GAP       N/A    -10 -14  79 NW18G25   30.22R WCI -34
ROY            FLURRIES  -4  -9  79 MISG      30.31S
STANFORD         N/A    -13 -16  84 N3        30.28R
$$

MTZ017>020-022>027-061-062-071300-
NORTHEAST MONTANA

CITY           SKY/WX    TMP DP  RH WIND       PRES   REMARKS
GLASGOW        CLEAR     -1  -9  68 NW28G36   30.38R WCI -26
JORDAN           N/A      2  -5  72 NW16G28   30.37R WCI -18
SIDNEY         CLEAR      0  -7  72 NW17      30.34R WCI -21
WOLF POINT     MOCLDY     1  -8  66 W13       30.39R WCI -17
PLENTYWOOD       N/A     -4  -9  77 NW22      30.27R WCI -28
POPLAR           N/A      0  -8  71 W10       30.37R WCI -17
SCOBEY           N/A     -5 -16  59 W9        30.26R WCI -21
$$

MTZ028>42-056>058-071300-
SOUTHCENTRAL AND SOUTHEAST MONTANA

CITY           SKY/WX    TMP DP  RH WIND       PRES   REMARKS
BAKER          CLOUDY    -1  -6  79 W20G25    30.25R WCI -23
BILLINGS       PTCLDY     2  -4  76 SE3       30.31R
LIVINGSTON     CLOUDY     2  -7  66 NW9       30.21R WCI -13
MILES CITY     CLOUDY     2  -7  66 W16       30.35R WCI -18
BIG TIMBER     CLOUDY     3  -2  78 W8        30.25R WCI -10
EKALAKA          N/A     -3 -11  69 W14       30.16R WCI -22
FORSYTH          N/A      1  -6  71 W12       30.38R WCI -15
LAUREL           N/A      2  -7  66 N1        30.26R
$$

REGIONAL REPORTS...DAKOTAS

CITY           SKY/WX    TMP DP  RH WIND       PRES   REMARKS
WILLISTON      MOCLDY    -1  -8  72 W13       30.30R WCI -19
MINOT          LGT SNOW   5   0  79 W35G45    30.09R WCI -20
DICKINSON      MIX PCPN   2  -4  76 NW24G33   30.17R WCI -21
BEACH          LGT SNOW   1   0  92 NW23G29   30.28R WCI -21
CROSBY         CLOUDY     0  -2  92 NW24G30   30.25R WCI -24
TIOGA          CLOUDY     0  -2  92 NW25G32   30.20R FOG     WCI -25
WATFORD CITY   MOCLDY     0  -4  85 NW21G26   30.26R WCI -23
BISMARCK       CLOUDY     6   1  80 NW17G32   30.16R WCI -13
GRAND FORKS    LGT SNOW  15  10  80 NW24G35   29.86R BLWGSNOWWCI  -4
FARGO          MOCLDY    13   6  74 W24G33    29.94R WCI  -7
BUFFALO SD       N/A      2  -5  72 NW24      30.14R WCI -21
RAPID CITY     CLOUDY     4  -4  69 N16       30.20R WCI -15
$$

REGIONAL REPORTS...WYOMING/IDAHO/WASHINGTON

CITY           SKY/WX    TMP DP  RH WIND       PRES   REMARKS
GILLETTE       CLOUDY    -1  -4  87 NW12      30.20R WCI -18
SHERIDAN       CLOUDY     1  -6  72 NW13      30.27R WCI -17
BUFFALO WY     CLOUDY    -1  -8  72 NW14G21   30.16R WCI -20
CODY           CLEAR     -3  -7  82 NE6       30.16R WCI -15
YELLOWSTONE LA   N/A     -5 -10  79 N5        29.92R
IDAHO FALLS    CLEAR      5  -1  76 N5        30.13R
SALMON         CLOUDY    12   9  85 CALM      30.19R
BOISE          MOCLDY    15  13  91 S3        30.26R FOG
SPOKANE        CLOUDY    22  14  71 SE6       30.30R WCI  14
$$

REGIONAL REPORTS...ALBERTA

CITY           SKY/WX    TMP DP  RH WIND       PRES   REMARKS
EDMONTON       CLOUDY    -8 -17  65 W7        30.54R WCI -22
CALGARY        PTCLDY    -8 -17  65 NW13      30.40R WCI -28
LETHBRIDGE     CLOUDY    -6 -11  77 W8        30.48R WCI -21
MEDICINE HAT   CLEAR     -4 -11  71 W8        30.51R WCI -19
WATERTON GATE    N/A     -9 -15  77 SW1         N/A
CARDSTON         N/A    -20 -26  76 SE1         N/A
MILK RIVER       N/A     -9 -15  77 W7          N/A  WCI -24
ONEFOUR          N/A     -2  -8  78 NW20G25     N/A  WCI -25
$$

REGIONAL REPORTS...SASKATCHEWAN

CITY           SKY/WX    TMP DP  RH WIND       PRES   REMARKS
SWIFT CURRENT  LGT SNOW  -8 -11  84 NW22G30   30.31R WCI -33
REGINA         PTCLDY    -2  -6  84 NW18      30.27S WCI -24
SASKATOON      FLURRIES   0  -6  78 NW15      30.37R WCI -20
CYPRESS HILLS    N/A    -11 -17  77 NW14G29     N/A  WCI -33
VAL MARIE        N/A     -8 -15  71 W8          N/A  WCI -23
ROCKGLEN         N/A     -8 -11  84 W16G24      N/A  WCI -30
ASSINIBOIA       N/A     -4 -11  71 NW16G22     N/A  WCI -25
$$




USA.gov is the U.S. government's official web portal to all federal, state and local government web resources and services.